Home   Weather   Moncton   Past weeks
Flag for Canada

Past Weather in Moncton, New Brunswick, Canada — Yesterday and Last 2 Weeks

Now
61 °F

Low clouds.


Feels Like: 61 °F
Forecast: 65 / 41 °F
Wind: 13 mph from South

Location: Moncton

Current Time: Apr 21, 2019 at 11:31:53 am

Latest Report: Apr 21, 2019 at 10:00 am


Visibility: 12 mi

Pressure: 30.11 "Hg

Humidity: 100%

Dew Point: 61 °F

Location of MonctonLocation

Past Weather in Moncton — Graph

°F

Moncton Temperature Yesterday

Maximum temperature yesterday: 46 °F (at 12:22 am)
Minimum temperature yesterday: 37 °F (at 5:18 am)
Average temperature yesterday: 39 °F

High & Low Weather Summary for the Past Weeks

 TemperatureHumidityPressure
High63 °F (Apr 19, 2:00 pm)100% (Apr 9, 4:48 am)30.32 "Hg (Apr 9, 4:48 am)
Low21 °F (Apr 8, 5:00 am)21% (Apr 12, 3:00 pm)29.11 "Hg (Apr 16, 2:29 am)
Average38 °F82%29.88 "Hg
* Reported Apr 6 10:00 am — Apr 21 10:00 am, Moncton. Weather by CustomWeather, © 2019

Note: Actual official high and low records may vary slightly from our data, if they occured in-between our weather recording intervals... More about our weather records

Advertising

Moncton Weather History for the Previous 24 Hours

Scroll right to see more
 ConditionsComfort  
Time TempWeatherWind HumidityBarometerVisibility
10:00 am
Sun, Apr 21
61 °FLow clouds.13 mph100%30.11 "Hg12 mi
9:00 am61 °FLow clouds.18 mph100%30.11 "Hg12 mi
8:16 am61 °FLow clouds.16 mph94%30.12 "Hg12 mi
8:00 am59 °FLow clouds.13 mph100%30.13 "Hg12 mi
7:23 am57 °FPartly sunny.14 mph100%30.12 "Hg15 mi
7:00 am54 °FPartly sunny.12 mph100%30.12 "Hg15 mi
6:36 am52 °FPartly sunny.8 mph100%30.11 "Hg15 mi
6:09 am50 °FFog.7 mph100%30.11 "Hg1 mi
5:00 am45 °FLight rain. Fog.5 mph100%30.12 "Hg5 mi
4:00 am41 °FLight rain. Fog.3 mph100%30.13 "Hg6 mi
3:00 am41 °FLight rain. Fog.3 mph100%30.15 "Hg4 mi
2:49 am39 °FLight rain. Fog.5 mph100%30.15 "Hg5 mi
2:00 am39 °FLight rain. Fog.6 mph100%30.17 "Hg6 mi
1:00 am37 °FLight rain. Fog.6 mph100%30.18 "Hg6 mi
12:00 am37 °FLight rain. Fog.6 mph100%30.19 "Hg6 mi
11:00 pm
Sat, Apr 20
37 °FLight rain. Mostly cloudy.7 mph100%30.18 "Hg8 mi
10:24 pm37 °FRain. Mostly cloudy.7 mph100%30.20 "Hg4 mi
9:00 pm37 °FDrizzle. Fog.6 mph100%30.18 "Hg1 mi
8:40 pm37 °FDrizzle. Fog.9 mph100%30.18 "Hg1 mi
8:16 pm37 °FLight rain. Fog.8 mph100%30.19 "Hg1 mi
7:50 pm37 °FLight rain. Fog.8 mph100%30.17 "Hg2 mi
7:00 pm39 °FLight rain. Fog.6 mph100%30.15 "Hg3 mi
6:00 pm39 °FLight rain. Fog.10 mph100%30.13 "Hg6 mi
5:48 pm39 °FLight rain. Fog.7 mph100%30.14 "Hg6 mi
5:26 pm39 °FLight rain. Fog.9 mph100%30.13 "Hg2 mi
5:00 pm39 °FDrizzle. Fog.10 mph100%30.12 "Hg1 mi
4:21 pm39 °FDrizzle. Fog.9 mph100%30.11 "Hg2 mi
3:42 pm39 °FLight rain. Fog.12 mph100%30.10 "Hg2 mi
3:29 pm39 °FLight rain. Fog.14 mph100%30.09 "Hg2 mi
3:00 pm39 °FLight rain. Low clouds.9 mph100%30.10 "Hg8 mi
2:40 pm39 °FLight rain. Fog.12 mph100%30.07 "Hg4 mi
2:29 pm39 °FRain. Fog.9 mph100%30.08 "Hg1 mi
2:00 pm39 °FLight rain. Fog.13 mph100%30.06 "Hg4 mi
1:00 pm41 °FLight rain. Fog.10 mph100%30.03 "Hg6 mi
12:00 pm41 °FLight rain. Fog.10 mph100%30.01 "Hg4 mi
11:00 am39 °FLight rain. Fog.14 mph100%29.97 "Hg3 mi
Weather by CustomWeather, © 2019

See weather overview